Retour au catalogue

ATLAS 5 CENTAUR DEB

LostHEO
NORAD 49361·DEBRIS·🇺🇸 United States

Lancé Oct 17, 2018 depuis Cape Canaveral Space Force Station

Loading…

Prochains Passages (prochaines 24 heures)

TLE

PériméSource: Space-Track

Époque: Feb 5, 2025, 07:41 UTC

1 49361U 18079FN  25036.32047101 -.00000030  00000-0  00000-0 0  9996
2 49361  10.0518 132.1462 4969129 114.0317 304.5508  1.51852726 19075

Suivez ATLAS 5 CENTAUR DEB en temps réel avec AllMySat

Download on the App Store